[[{"header":{"parameterUnit":"m.s-1","parameterCategory":1,"la1":30.2991,"la2":30.254,"lo1":-89.0895,"lo2":-89.0444,"dy":0.0017,"dx":0.0017,"nx":28,"ny":28,"refTime":"2024-04-10T21:00:00:Z","depth":0,"parameterNumber":2,"parameterNumberName":"U-component_of_WINDS"},"data":[0,0,0,0,0,0,0,0,0,0,0,0,0,0,0,0,0,0,0,0,0,0,0,0,0,0,0,0,0,0,0,0,0,0,0,0,0,0,0,0,0,0,0,0,0,0,0,0,0,0,0,0,0,0,0,0,0,0,9.0957,9.0959,0,9.1189,9.1191,9.1194,9.1108,9.1102,9.1097,9.1092,9.1333,9.1344,9.1356,0,0,0,0,0,0,0,0,0,0,0,0,0,9.0442,9.0452,9.0957,9.096,9.0963,9.1188,9.1191,9.1195,9.1108,9.1102,9.1096,9.109,9.133,9.1343,9.1357,0,0,0,0,0,0,0,0,0,0,0,0,0,9.0669,9.0455,9.0956,9.0947,9.0948,9.1188,9.1192,9.1195,9.111,9.1102,9.1094,9.1087,9.1325,9.1342,9.1358,9.1622,0,0,9.141,9.1418,0,0,0,0,0,0,0,0,9.0657,9.0688,9.0945,9.0948,9.095,9.1111,9.1098,9.1339,9.1112,9.1049,9.1092,9.1083,9.1266,9.1287,9.1348,9.1634,9.1644,9.1412,9.1422,9.143,9.1434,0,0,0,0,0,0,0,9.0641,9.0678,9.1048,9.0949,9.0952,9.0932,9.0955,9.1144,9.1199,9.1053,9.1048,9.1076,9.1266,9.1332,9.1353,9.1648,9.1412,9.1427,9.1437,9.1444,9.216,9.2169,0,0,0,0,0,0,9.0624,9.0665,9.1041,9.1055,9.078,9.0947,9.0974,9.1067,9.1197,9.1209,9.1083,9.1071,9.1307,9.1334,9.1362,9.1678,9.1429,9.1445,9.1455,9.2151,9.2162,9.2172,0,0,0,0,0,0,9.0613,9.0658,9.1032,9.0859,9.0905,9.0965,9.1071,9.1076,9.1142,9.1219,9.1229,9.114,9.1302,9.1338,9.1558,9.1685,9.1453,9.1469,9.2141,9.2155,9.2167,9.2314,0,0,0,0,0,0,9.0599,9.0655,9.0755,9.0862,9.0914,9.1224,9.1079,9.1086,9.1171,9.1159,9.1275,9.1287,9.1298,9.1533,9.1575,9.1705,9.1482,9.213,9.2147,9.2163,9.2298,9.2331,9.2359,0,0,0,0,0,9.0581,9.0788,9.0761,9.0806,9.1041,9.1231,9.1261,9.1269,9.1182,9.1284,9.1333,9.1283,9.1665,9.1556,9.1602,9.174,9.2122,9.2142,9.2161,9.2285,9.2324,9.2358,0,0,0,0,0,0,9.0697,9.0802,9.0772,9.1021,9.1118,9.1216,9.1344,9.1311,9.1435,9.1418,9.1424,9.1451,9.1677,9.1731,9.1607,9.2001,9.188,9.191,9.1958,9.1997,9.2026,9.2008,9.1496,0,0,0,0,0,9.0751,9.0895,9.098,9.1191,9.1241,9.1285,9.1368,9.1365,9.1466,9.1507,9.1572,9.1673,9.1815,9.1909,9.2044,9.2306,9.2329,9.2423,9.2453,9.2477,9.2503,9.2645,9.2687,9.2237,9.2237,9.2236,0,0,9.0865,9.094,9.1032,9.1216,9.1291,9.1441,9.132,9.1484,9.1596,9.1532,9.1743,9.1795,9.1908,9.2149,9.2259,9.2201,9.2633,9.2503,9.2522,9.2534,9.2669,9.2712,9.275,9.225,9.2248,9.2246,0,0,9.1149,9.1221,9.1404,9.1481,9.1594,9.1622,9.1666,9.177,9.1801,9.2013,9.1968,9.2102,9.2347,9.2429,9.2503,9.2818,9.2777,9.2862,9.302,9.3157,9.3193,9.3224,9.3336,9.3376,9.2887,9.2888,9.2888,0,9.1276,9.15,9.1503,9.1671,9.1753,9.1701,9.1887,9.1962,9.2115,9.2173,9.2105,9.2411,9.2484,9.2743,9.282,9.2882,9.2932,9.2848,9.3187,9.3219,9.3248,9.3355,9.3397,9.2897,9.2896,9.2895,9.2894,0,9.1651,9.1807,9.1941,9.2088,9.2186,9.2362,9.2392,9.2491,9.248,9.2515,9.2731,9.2816,9.2967,9.3029,9.3021,9.3288,9.3248,9.3184,9.3062,9.3301,9.34,9.3441,9.2911,9.2907,9.2905,9.2902,0,0,9.2015,9.216,9.221,9.2275,9.2397,9.2518,9.2692,9.2838,9.2922,9.303,9.3176,9.3384,9.3325,9.3409,9.341,9.3531,9.3774,9.3452,9.3455,9.3508,9.4072,9.4118,9.4166,9.3747,9.3755,9.3761,9.4062,0,9.2308,9.2611,9.2618,9.2897,9.3041,9.2993,9.3144,9.3236,9.3273,9.3401,9.3443,9.359,9.3502,9.3552,9.367,9.3719,9.3887,9.3698,9.3883,9.389,9.3855,9.4218,9.4268,9.4548,9.4101,9.4108,9.4113,0,9.269,9.2808,9.31,9.32,9.326,9.3396,9.353,9.3653,9.3756,9.3775,9.3868,9.385,9.4028,9.3902,9.4147,9.4018,9.4095,9.413,9.4141,9.4158,9.4015,9.4244,9.4637,9.4679,9.4175,9.417,9.4165,0,9.2925,9.3157,9.3361,9.3419,9.3541,9.3637,9.3693,9.3788,9.3875,9.3993,9.4049,9.4187,9.4263,9.437,9.439,9.4296,9.4636,9.4511,9.4656,9.4656,9.4729,9.4724,9.514,9.4781,9.478,9.4779,9.4779,0,9.3251,9.3432,9.3468,9.3594,9.3795,9.3802,9.4001,9.4049,9.4134,9.4268,9.4236,9.4364,9.4383,9.4515,9.4532,9.4732,9.4767,9.4787,9.4789,9.479,9.4787,9.4839,9.482,9.4791,9.4788,9.4786,9.4784,0,9.3548,9.3579,9.3799,9.3895,9.3924,9.4068,9.4151,9.4272,9.4305,9.4476,9.4516,9.457,9.4723,9.4754,9.4937,9.4948,9.5186,9.5169,9.5151,9.5149,9.5292,9.5278,9.5755,9.5817,9.5418,9.5422,9.5425,0,9.3753,9.3891,9.4002,9.4089,9.4148,9.429,9.4378,9.439,9.4483,9.461,9.4716,9.4866,9.4986,9.5234,9.529,9.5429,9.5415,9.5573,9.5436,9.5431,9.5416,9.5407,9.5421,9.5599,9.5603,9.5606,9.5609,0,9.4115,9.4123,9.4251,9.4384,9.449,9.4596,9.4697,9.4771,9.4796,9.4903,9.5059,9.5152,9.5337,9.5487,9.5626,9.5684,9.5652,9.5652,9.5693,9.5694,9.5677,9.5687,9.5221,9.5641,9.5638,9.5635,9.5634,9.5632,9.4371,9.4491,9.4587,9.473,9.4807,9.4901,9.5019,9.5066,9.5196,9.5346,9.5346,9.5517,9.5616,9.5798,9.5865,9.5999,9.5949,9.6009,9.6024,9.6038,9.6051,9.5656,9.6025,9.6024,9.6023,9.6022,9.6022,0,9.473,9.4789,9.4921,9.5061,9.5174,9.5132,9.5242,9.5339,9.5489,9.5583,9.5701,9.588,9.6025,9.6091,9.6234,9.6328,9.6317,9.6365,9.6358,9.6372,9.6088,9.6037,9.6372,9.6372,9.6372,9.6372,9.6371,9.6371,9.493,9.5129,9.5149,9.5386,9.5444,9.5609,9.5675,9.5762,9.5837,9.6038,9.6157,9.6198,9.6282,9.643,9.656,9.6576,9.663,9.6685,9.6694,9.6427,9.6392,9.6358,9.631,9.6697,9.6697,9.6966,9.6969,9.6971]},{"header":{"parameterUnit":"m.s-1","parameterCategory":1,"la1":30.2991,"la2":30.254,"lo1":-89.0895,"lo2":-89.0444,"dy":0.0017,"dx":0.0017,"nx":28,"ny":28,"refTime":"2024-04-10T21:00:00:Z","depth":0,"parameterNumber":3,"parameterNumberName":"V-component_of_WINDS"},"data":[0,0,0,0,0,0,0,0,0,0,0,0,0,0,0,0,0,0,0,0,0,0,0,0,0,0,0,0,0,0,0,0,0,0,0,0,0,0,0,0,0,0,0,0,0,0,0,0,0,0,0,0,0,0,0,0,0,0,1.6501,1.65,0,1.6462,1.6461,1.6461,1.6409,1.6408,1.6407,1.6406,1.6366,1.6366,1.6366,0,0,0,0,0,0,0,0,0,0,0,0,0,1.6529,1.6529,1.6501,1.65,1.65,1.6462,1.6461,1.6461,1.6409,1.6408,1.6407,1.6406,1.6366,1.6366,1.6366,0,0,0,0,0,0,0,0,0,0,0,0,0,1.6506,1.6529,1.6501,1.6469,1.6466,1.6462,1.6461,1.6461,1.6409,1.6408,1.6406,1.6405,1.6366,1.6366,1.6366,1.639,0,0,1.6364,1.6364,0,0,0,0,0,0,0,0,1.6508,1.6505,1.6474,1.6471,1.6468,1.6439,1.6457,1.6437,1.6409,1.6431,1.6406,1.6405,1.6391,1.6389,1.6384,1.6388,1.6386,1.6364,1.6364,1.6364,1.6364,0,0,0,0,0,0,0,1.6509,1.6507,1.6485,1.6474,1.647,1.6457,1.6452,1.6453,1.6419,1.6429,1.6425,1.6421,1.6389,1.6385,1.6383,1.6385,1.6364,1.6364,1.6364,1.6364,1.6406,1.6407,0,0,0,0,0,0,1.6516,1.6508,1.6487,1.6484,1.6485,1.6457,1.6452,1.6449,1.6419,1.6413,1.6422,1.6419,1.6386,1.6384,1.6382,1.6408,1.6364,1.6364,1.6364,1.6404,1.6406,1.6408,0,0,0,0,0,0,1.6517,1.6514,1.6488,1.6495,1.6491,1.6458,1.6456,1.6449,1.6445,1.6414,1.6407,1.6424,1.6385,1.6382,1.6388,1.6406,1.6364,1.6363,1.6403,1.6405,1.6407,1.646,0,0,0,0,0,0,1.6518,1.6515,1.6524,1.6496,1.6491,1.6496,1.6457,1.645,1.6444,1.644,1.6414,1.6408,1.6384,1.6389,1.6388,1.6404,1.6363,1.6401,1.6404,1.6406,1.6457,1.6464,1.647,0,0,0,0,0,1.6519,1.654,1.6525,1.6522,1.6501,1.6497,1.6494,1.6465,1.6446,1.6455,1.6435,1.6409,1.6404,1.639,1.6388,1.6405,1.64,1.6403,1.6406,1.6454,1.6462,1.647,0,0,0,0,0,0,1.6572,1.6536,1.6518,1.6532,1.6518,1.6488,1.6498,1.6475,1.6467,1.6462,1.6427,1.6422,1.6432,1.6419,1.6404,1.6426,1.6398,1.6401,1.6435,1.6443,1.6449,1.6453,1.6363,0,0,0,0,0,1.6585,1.6584,1.6553,1.6568,1.6562,1.6531,1.6528,1.6507,1.6491,1.6485,1.6465,1.6451,1.6446,1.6443,1.6437,1.6454,1.6448,1.6465,1.6471,1.6477,1.648,1.6488,1.6495,1.6417,1.6417,1.6417,0,0,1.6612,1.6593,1.6594,1.6578,1.6565,1.6565,1.6527,1.6528,1.6528,1.6485,1.649,1.6475,1.6456,1.6468,1.6472,1.6457,1.65,1.6481,1.6485,1.6485,1.6492,1.6499,1.6506,1.642,1.6419,1.6419,0,0,1.6662,1.6647,1.6658,1.6645,1.6625,1.6605,1.6607,1.6581,1.6569,1.6573,1.6541,1.654,1.6532,1.652,1.6513,1.6558,1.6534,1.6556,1.6591,1.6599,1.6605,1.6611,1.6627,1.6633,1.6559,1.6559,1.656,0,1.6698,1.6697,1.6666,1.667,1.6663,1.6624,1.6635,1.6624,1.6603,1.66,1.6583,1.6572,1.6557,1.6565,1.6576,1.6571,1.6573,1.656,1.6607,1.6612,1.6616,1.6632,1.6638,1.6562,1.6562,1.6562,1.6561,0,1.6743,1.6743,1.6754,1.6735,1.6729,1.6737,1.6706,1.6705,1.6684,1.6665,1.6669,1.665,1.6638,1.6639,1.6619,1.6644,1.6635,1.6613,1.6585,1.6627,1.6641,1.6646,1.6567,1.6566,1.6565,1.6564,0,0,1.6826,1.6789,1.6794,1.6785,1.676,1.6759,1.6764,1.6753,1.6753,1.6739,1.6743,1.6737,1.6716,1.6708,1.6686,1.6693,1.673,1.667,1.6669,1.6682,1.6757,1.6775,1.6782,1.6714,1.6715,1.6715,1.6759,0,1.6872,1.6879,1.6851,1.6865,1.6864,1.6827,1.6831,1.6816,1.6799,1.6795,1.6775,1.6772,1.6745,1.674,1.6745,1.6725,1.6745,1.6721,1.6717,1.6717,1.6724,1.6789,1.6807,1.685,1.6764,1.6765,1.6766,0,1.6926,1.6916,1.6931,1.6905,1.6903,1.6908,1.6895,1.6893,1.6875,1.6861,1.6852,1.6827,1.6829,1.6801,1.6805,1.6789,1.6785,1.6775,1.6776,1.6775,1.6745,1.6791,1.6862,1.6869,1.6774,1.6773,1.6772,0,1.6986,1.6976,1.6983,1.6976,1.6946,1.695,1.6938,1.6918,1.6914,1.6903,1.6899,1.6889,1.6883,1.6875,1.6847,1.6829,1.6854,1.6824,1.6843,1.6844,1.6851,1.6851,1.6924,1.6848,1.6848,1.6848,1.6847,0,1.7041,1.7051,1.7009,1.7014,1.7025,1.6991,1.7003,1.6986,1.697,1.697,1.6937,1.6938,1.6901,1.6898,1.6876,1.6882,1.688,1.6869,1.6864,1.6873,1.6874,1.6871,1.6867,1.6849,1.6849,1.6848,1.6848,0,1.711,1.7082,1.7088,1.7059,1.7051,1.7061,1.7035,1.7038,1.7018,1.7019,1.7018,1.6986,1.6981,1.6952,1.694,1.6925,1.694,1.6928,1.6946,1.6942,1.6964,1.6963,1.7038,1.7046,1.6964,1.6965,1.6965,0,1.7147,1.7154,1.7125,1.7123,1.7113,1.711,1.7105,1.7072,1.7068,1.7048,1.7053,1.7045,1.7037,1.7031,1.7007,1.6997,1.6985,1.7012,1.6983,1.6992,1.6986,1.6986,1.6987,1.7018,1.7019,1.702,1.7021,0,1.7215,1.7201,1.7195,1.7185,1.7179,1.7169,1.7157,1.7157,1.7121,1.7118,1.7113,1.7106,1.7094,1.7087,1.7073,1.706,1.7035,1.703,1.7034,1.7044,1.7055,1.705,1.6963,1.7029,1.7028,1.7027,1.7027,1.7026,1.727,1.7274,1.7255,1.7249,1.7237,1.7226,1.7228,1.7207,1.7202,1.719,1.7171,1.7168,1.7149,1.7128,1.7117,1.7114,1.7099,1.7105,1.7107,1.7109,1.7114,1.7055,1.7111,1.7111,1.711,1.711,1.711,0,1.7337,1.7323,1.7318,1.7302,1.7297,1.7274,1.7259,1.7257,1.7255,1.7239,1.7232,1.7225,1.7218,1.7193,1.7183,1.7185,1.7173,1.7184,1.7184,1.7181,1.7127,1.7125,1.7193,1.7193,1.7193,1.7193,1.7193,1.7193,1.7372,1.7378,1.7362,1.7362,1.7347,1.7344,1.7338,1.7328,1.7315,1.731,1.7303,1.7287,1.7268,1.7256,1.7248,1.7241,1.7239,1.7253,1.7242,1.7193,1.7185,1.7177,1.7175,1.7253,1.7253,1.7296,1.7297,1.7297]}]]